Time,TemperatureF,DewpointF,PressureIn,WindDirection,WindDirectionDegrees,WindSpeedMPH,WindSpeedGustMPH,Humidity,HourlyPrecipIn,Conditions,Clouds,dailyrainin,SoftwareType,DateUTC
2013-03-09 00:00:00,42.3,39.0,29.91,SSE,158,9.0,11.0,88,0.08,,SKC,0.00,VWS V14.01,2013-03-09 06:00:00,
2013-03-09 00:04:00,42.3,39.3,29.91,South,171,4.0,11.0,89,0.08,,SKC,0.00,VWS V14.01,2013-03-09 06:04:00,
2013-03-09 00:12:00,42.3,39.3,29.90,SE,139,7.0,11.0,89,0.08,,SKC,0.00,VWS V14.01,2013-03-09 06:12:00,
2013-03-09 00:20:00,42.4,39.1,29.90,SE,138,4.0,11.0,88,0.08,,SKC,0.00,VWS V14.01,2013-03-09 06:20:00,
2013-03-09 00:24:00,42.4,39.1,29.90,SSE,157,5.0,11.0,88,0.08,,SKC,0.00,VWS V14.01,2013-03-09 06:24:00,
2013-03-09 00:28:00,42.4,39.1,29.90,SSE,166,3.0,11.0,88,0.08,,SKC,0.00,VWS V14.01,2013-03-09 06:28:00,
2013-03-09 00:29:00,42.4,39.1,29.90,SE,143,4.0,11.0,88,0.08,,SKC,0.00,VWS V14.01,2013-03-09 06:29:00,
2013-03-09 00:32:00,42.4,39.1,29.89,ESE,121,1.0,4.0,88,0.07,,SKC,0.01,VWS V14.01,2013-03-09 06:32:00,
2013-03-09 00:40:00,42.2,39.2,29.89,SSE,159,5.0,6.0,89,0.07,,SKC,0.01,VWS V14.01,2013-03-09 06:40:00,
2013-03-09 00:44:00,42.2,39.2,29.89,SSE,161,5.0,6.0,89,0.07,,SKC,0.01,VWS V14.01,2013-03-09 06:44:00,
2013-03-09 00:52:00,42.2,39.2,29.89,SE,139,4.0,6.0,89,0.07,,SKC,0.01,VWS V14.01,2013-03-09 06:52:00,
2013-03-09 00:56:00,42.2,39.2,29.89,SSE,157,4.0,7.0,89,0.07,,SKC,0.01,VWS V14.01,2013-03-09 06:56:00,
2013-03-09 00:59:00,42.2,39.2,29.89,SSE,150,6.0,8.0,89,0.07,,SKC,0.01,VWS V14.01,2013-03-09 06:59:00,
2013-03-09 01:00:00,42.2,39.2,29.89,SSE,148,5.0,7.0,89,0.01,,SKC,0.01,VWS V14.01,2013-03-09 07:00:00,
2013-03-09 01:04:00,42.2,39.2,29.89,SSE,167,6.0,8.0,89,0.01,,SKC,0.01,VWS V14.01,2013-03-09 07:04:00,
2013-03-09 01:08:00,42.2,39.2,29.88,SSE,157,5.0,8.0,89,0.01,,SKC,0.01,VWS V14.01,2013-03-09 07:08:00,
2013-03-09 01:12:00,42.2,39.2,29.88,South,174,5.0,8.0,89,0.01,,SKC,0.01,VWS V14.01,2013-03-09 07:12:00,
2013-03-09 01:16:00,42.3,39.3,29.88,SE,135,4.0,8.0,89,0.01,,SKC,0.01,VWS V14.01,2013-03-09 07:16:00,
2013-03-09 01:20:00,42.2,39.2,29.88,SSE,153,2.0,8.0,89,0.01,,SKC,0.01,VWS V14.01,2013-03-09 07:20:00,
2013-03-09 01:24:00,42.2,39.2,29.88,SE,135,3.0,8.0,89,0.01,,SKC,0.01,VWS V14.01,2013-03-09 07:24:00,
2013-03-09 01:28:00,42.2,39.2,29.88,SSE,158,3.0,8.0,89,0.01,,SKC,0.01,VWS V14.01,2013-03-09 07:28:00,
2013-03-09 01:32:00,42.1,39.1,29.88,SSE,152,4.0,5.0,89,0.01,,SKC,0.01,VWS V14.01,2013-03-09 07:32:00,
2013-03-09 01:36:00,42.1,39.1,29.87,SE,143,3.0,6.0,89,0.01,,SKC,0.01,VWS V14.01,2013-03-09 07:36:00,
2013-03-09 01:44:00,42.1,39.4,29.87,SSE,155,3.0,8.0,90,0.01,,SKC,0.01,VWS V14.01,2013-03-09 07:44:00,
2013-03-09 01:48:00,42.1,39.4,29.87,East,95,1.0,8.0,90,0.01,,SKC,0.01,VWS V14.01,2013-03-09 07:48:00,
2013-03-09 01:52:00,42.1,39.4,29.86,East,98,6.0,8.0,90,0.01,,SKC,0.01,VWS V14.01,2013-03-09 07:52:00,
2013-03-09 01:59:00,42.1,39.4,29.87,SE,138,3.0,8.0,90,0.01,,SKC,0.01,VWS V14.01,2013-03-09 07:59:00,
2013-03-09 02:00:00,42.1,39.4,29.87,South,175,6.0,8.0,90,0.00,,SKC,0.01,VWS V14.01,2013-03-09 08:00:00,
2013-03-09 02:04:00,42.1,39.4,29.86,SE,138,0.0,8.0,90,0.00,,SKC,0.01,VWS V14.01,2013-03-09 08:04:00,
2013-03-09 02:08:00,42.1,39.4,29.86,SSE,148,1.0,8.0,90,0.00,,SKC,0.01,VWS V14.01,2013-03-09 08:08:00,
2013-03-09 02:12:00,42.2,39.5,29.86,SSW,192,3.0,8.0,90,0.00,,SKC,0.01,VWS V14.01,2013-03-09 08:12:00,
2013-03-09 02:16:00,42.2,39.5,29.85,SSE,164,2.0,8.0,90,0.00,,SKC,0.01,VWS V14.01,2013-03-09 08:16:00,
2013-03-09 02:20:00,42.2,39.5,29.85,ESE,111,0.0,8.0,90,0.00,,SKC,0.01,VWS V14.01,2013-03-09 08:20:00,
2013-03-09 02:24:00,42.1,39.4,29.85,SSE,153,2.0,8.0,90,0.00,,SKC,0.01,VWS V14.01,2013-03-09 08:24:00,
2013-03-09 02:28:00,42.1,39.7,29.84,SE,141,1.0,8.0,91,0.00,,SKC,0.01,VWS V14.01,2013-03-09 08:28:00,
2013-03-09 02:29:00,42.1,39.7,29.84,East,94,0.0,8.0,91,0.00,,SKC,0.01,VWS V14.01,2013-03-09 08:29:00,
2013-03-09 02:32:00,42.1,39.7,29.84,South,184,0.0,5.0,91,0.01,,SKC,0.02,VWS V14.01,2013-03-09 08:32:00,
2013-03-09 02:36:00,42.1,39.7,29.84,SE,143,1.0,5.0,91,0.01,,SKC,0.02,VWS V14.01,2013-03-09 08:36:00,
2013-03-09 02:40:00,42.1,39.7,29.83,SE,132,0.0,5.0,91,0.01,,SKC,0.02,VWS V14.01,2013-03-09 08:40:00,
2013-03-09 02:44:00,42.1,39.7,29.83,East,95,3.0,7.0,91,0.01,,SKC,0.02,VWS V14.01,2013-03-09 08:44:00,
2013-03-09 02:48:00,42.1,39.7,29.82,East,98,5.0,7.0,91,0.01,,SKC,0.02,VWS V14.01,2013-03-09 08:48:00,
2013-03-09 02:52:00,42.2,39.8,29.82,ENE,74,1.0,7.0,91,0.01,,SKC,0.02,VWS V14.01,2013-03-09 08:52:00,
2013-03-09 02:56:00,42.3,39.9,29.81,ENE,68,1.0,8.0,91,0.01,,SKC,0.02,VWS V14.01,2013-03-09 08:56:00,
2013-03-09 02:59:00,42.3,39.6,29.81,ESE,115,1.0,8.0,90,0.01,,SKC,0.02,VWS V14.01,2013-03-09 08:59:00,
2013-03-09 03:04:00,42.6,40.2,29.81,East,97,0.0,7.0,91,0.01,,SKC,0.02,VWS V14.01,2013-03-09 09:04:00,
2013-03-09 03:12:00,43.0,40.3,29.81,SE,128,2.0,8.0,90,0.01,,SKC,0.02,VWS V14.01,2013-03-09 09:12:00,
2013-03-09 03:16:00,43.0,40.3,29.81,South,177,0.0,8.0,90,0.01,,SKC,0.02,VWS V14.01,2013-03-09 09:16:00,
2013-03-09 03:20:00,43.1,40.4,29.81,North,5,2.0,8.0,90,0.01,,SKC,0.02,VWS V14.01,2013-03-09 09:20:00,
2013-03-09 03:24:00,43.1,40.4,29.81,SE,138,1.0,8.0,90,0.01,,SKC,0.02,VWS V14.01,2013-03-09 09:24:00,
2013-03-09 03:28:00,43.1,40.4,29.81,ESE,102,0.0,8.0,90,0.01,,SKC,0.02,VWS V14.01,2013-03-09 09:28:00,
2013-03-09 03:29:00,43.1,40.4,29.81,South,175,0.0,8.0,90,0.01,,SKC,0.02,VWS V14.01,2013-03-09 09:29:00,
2013-03-09 03:36:00,43.0,40.3,29.80,ENE,76,4.0,7.0,90,0.02,,SKC,0.03,VWS V14.01,2013-03-09 09:36:00,
2013-03-09 03:40:00,43.1,40.7,29.79,East,100,5.0,7.0,91,0.02,,SKC,0.03,VWS V14.01,2013-03-09 09:40:00,
2013-03-09 03:44:00,43.1,40.7,29.78,SE,124,2.0,8.0,91,0.02,,SKC,0.03,VWS V14.01,2013-03-09 09:44:00,
2013-03-09 03:48:00,43.1,40.7,29.78,NE,56,1.0,8.0,91,0.02,,SKC,0.03,VWS V14.01,2013-03-09 09:48:00,
2013-03-09 03:52:00,43.1,40.7,29.78,WNW,296,1.0,10.0,91,0.02,,SKC,0.03,VWS V14.01,2013-03-09 09:52:00,
2013-03-09 03:56:00,43.1,40.7,29.78,SE,140,3.0,10.0,91,0.02,,SKC,0.03,VWS V14.01,2013-03-09 09:56:00,
2013-03-09 04:04:00,43.3,40.8,29.78,SSE,154,0.0,7.0,91,0.01,,SKC,0.03,VWS V14.01,2013-03-09 10:04:00,
2013-03-09 04:12:00,43.4,40.7,29.77,ESE,110,5.0,9.0,90,0.01,,SKC,0.03,VWS V14.01,2013-03-09 10:12:00,
2013-03-09 04:16:00,43.4,40.7,29.77,East,88,5.0,9.0,90,0.01,,SKC,0.03,VWS V14.01,2013-03-09 10:16:00,
2013-03-09 04:20:00,43.3,40.6,29.78,East,93,0.0,9.0,90,0.01,,SKC,0.03,VWS V14.01,2013-03-09 10:20:00,
2013-03-09 04:24:00,43.3,40.6,29.78,ESE,107,3.0,9.0,90,0.01,,SKC,0.03,VWS V14.01,2013-03-09 10:24:00,
2013-03-09 04:28:00,43.4,40.7,29.78,South,184,0.0,9.0,90,0.01,,SKC,0.03,VWS V14.01,2013-03-09 10:28:00,
2013-03-09 04:29:00,43.4,40.7,29.78,ESE,103,0.0,9.0,90,0.01,,SKC,0.03,VWS V14.01,2013-03-09 10:29:00,
2013-03-09 04:36:00,43.3,40.6,29.77,East,98,5.0,6.0,90,0.01,,SKC,0.03,VWS V14.01,2013-03-09 10:36:00,
2013-03-09 04:44:00,43.3,40.6,29.77,ESE,107,2.0,6.0,90,0.01,,SKC,0.03,VWS V14.01,2013-03-09 10:44:00,
2013-03-09 04:48:00,43.3,40.8,29.77,East,101,3.0,7.0,91,0.01,,SKC,0.03,VWS V14.01,2013-03-09 10:48:00,
2013-03-09 04:52:00,43.7,41.0,29.77,ESE,106,5.0,9.0,90,0.01,,SKC,0.03,VWS V14.01,2013-03-09 10:52:00,
2013-03-09 04:59:00,43.8,41.1,29.77,ESE,110,5.0,9.0,90,0.01,,SKC,0.03,VWS V14.01,2013-03-09 10:59:00,
2013-03-09 05:05:00,43.6,40.9,29.77,East,97,7.0,7.0,90,0.00,,SKC,0.03,VWS V14.01,2013-03-09 11:05:00,
2013-03-09 05:09:00,43.6,40.9,29.77,East,86,3.0,7.0,90,0.00,,SKC,0.03,VWS V14.01,2013-03-09 11:09:00,
2013-03-09 05:13:00,43.5,40.8,29.77,ESE,108,0.0,7.0,90,0.00,,SKC,0.03,VWS V14.01,2013-03-09 11:13:00,
2013-03-09 05:17:00,43.4,40.7,29.76,ENE,69,2.0,8.0,90,0.00,,SKC,0.03,VWS V14.01,2013-03-09 11:17:00,
2013-03-09 05:21:00,43.4,40.7,29.75,ESE,105,7.0,8.0,90,0.00,,SKC,0.03,VWS V14.01,2013-03-09 11:21:00,
2013-03-09 05:25:00,43.4,40.7,29.75,East,98,6.0,9.0,90,0.00,,SKC,0.03,VWS V14.01,2013-03-09 11:25:00,
2013-03-09 05:29:00,43.4,40.7,29.74,East,98,5.0,9.0,90,0.00,,SKC,0.03,VWS V14.01,2013-03-09 11:29:00,
2013-03-09 05:33:00,43.3,40.6,29.74,East,90,3.0,7.0,90,0.00,,SKC,0.03,VWS V14.01,2013-03-09 11:33:00,
2013-03-09 05:41:00,43.0,40.3,29.75,East,92,6.0,8.0,90,0.00,,SKC,0.03,VWS V14.01,2013-03-09 11:41:00,
2013-03-09 05:45:00,42.9,40.2,29.75,East,101,6.0,9.0,90,0.00,,SKC,0.03,VWS V14.01,2013-03-09 11:45:00,
2013-03-09 05:49:00,42.8,40.4,29.75,ESE,113,4.0,9.0,91,0.00,,SKC,0.03,VWS V14.01,2013-03-09 11:49:00,
2013-03-09 05:53:00,42.8,40.4,29.74,East,101,3.0,9.0,91,0.00,,SKC,0.03,VWS V14.01,2013-03-09 11:53:00,
2013-03-09 05:57:00,42.7,40.3,29.75,WSW,240,0.0,9.0,91,0.00,,SKC,0.03,VWS V14.01,2013-03-09 11:57:00,
2013-03-09 05:59:00,42.7,40.3,29.75,SSE,154,0.0,9.0,91,0.00,,SKC,0.03,VWS V14.01,2013-03-09 11:59:00,
2013-03-09 06:05:00,42.7,40.3,29.74,ENE,72,3.0,9.0,91,0.00,,SKC,0.03,VWS V14.01,2013-03-09 12:05:00,
2013-03-09 06:09:00,42.7,40.3,29.74,SSE,151,0.0,9.0,91,0.00,,SKC,0.03,VWS V14.01,2013-03-09 12:09:00,
2013-03-09 06:13:00,42.8,40.4,29.74,SSE,166,1.0,9.0,91,0.00,,SKC,0.03,VWS V14.01,2013-03-09 12:13:00,
2013-03-09 06:17:00,42.8,40.4,29.74,South,186,4.0,9.0,91,0.00,,SKC,0.03,VWS V14.01,2013-03-09 12:17:00,
2013-03-09 06:21:00,42.9,40.5,29.74,ENE,63,2.0,9.0,91,0.00,,SKC,0.03,VWS V14.01,2013-03-09 12:21:00,
2013-03-09 06:29:00,43.1,40.4,29.74,ESE,123,0.0,9.0,90,0.00,,SKC,0.03,VWS V14.01,2013-03-09 12:29:00,
2013-03-09 06:37:00,43.3,40.6,29.73,SW,223,0.0,9.0,90,0.00,,SKC,0.03,VWS V14.01,2013-03-09 12:37:00,
2013-03-09 06:45:00,43.2,40.5,29.72,SE,132,5.0,10.0,90,0.00,,SKC,0.03,VWS V14.01,2013-03-09 12:45:00,
2013-03-09 06:49:00,43.2,40.5,29.71,ESE,109,8.0,10.0,90,0.00,,SKC,0.03,VWS V14.01,2013-03-09 12:49:00,
2013-03-09 06:57:00,43.4,40.7,29.72,SSE,159,3.0,11.0,90,0.00,,SKC,0.03,VWS V14.01,2013-03-09 12:57:00,
2013-03-09 06:59:00,43.3,40.6,29.71,SE,146,5.0,11.0,90,0.00,,SKC,0.03,VWS V14.01,2013-03-09 12:59:00,
2013-03-09 07:01:00,43.3,40.6,29.71,SE,126,0.0,5.0,90,0.00,,SKC,0.03,VWS V14.01,2013-03-09 13:01:00,
2013-03-09 07:05:00,43.2,40.5,29.71,East,79,3.0,7.0,90,0.00,,SKC,0.03,VWS V14.01,2013-03-09 13:05:00,
2013-03-09 07:09:00,43.2,40.5,29.71,ENE,74,3.0,9.0,90,0.00,,SKC,0.03,VWS V14.01,2013-03-09 13:09:00,
2013-03-09 07:13:00,43.2,40.5,29.71,ESE,103,8.0,12.0,90,0.00,,SKC,0.03,VWS V14.01,2013-03-09 13:13:00,
2013-03-09 07:21:00,43.7,41.0,29.69,East,99,8.0,12.0,90,0.00,,SKC,0.03,VWS V14.01,2013-03-09 13:21:00,
2013-03-09 07:25:00,44.0,41.3,29.69,East,98,9.0,13.0,90,0.00,,SKC,0.03,VWS V14.01,2013-03-09 13:25:00,
2013-03-09 07:29:00,44.3,41.3,29.69,ESE,116,9.0,13.0,89,0.00,,SKC,0.03,VWS V14.01,2013-03-09 13:29:00,
2013-03-09 07:33:00,44.6,41.6,29.68,ENE,64,9.0,13.0,89,0.00,,SKC,0.03,VWS V14.01,2013-03-09 13:33:00,
2013-03-09 07:37:00,44.9,41.6,29.68,ESE,102,10.0,13.0,88,0.00,,SKC,0.03,VWS V14.01,2013-03-09 13:37:00,
2013-03-09 07:41:00,45.2,41.9,29.68,ESE,103,9.0,16.0,88,0.00,,SKC,0.03,VWS V14.01,2013-03-09 13:41:00,
2013-03-09 07:45:00,45.3,41.7,29.68,East,86,14.0,16.0,87,0.00,,SKC,0.03,VWS V14.01,2013-03-09 13:45:00,
2013-03-09 07:49:00,45.4,41.8,29.67,ESE,121,12.0,16.0,87,0.00,,SKC,0.03,VWS V14.01,2013-03-09 13:49:00,
2013-03-09 07:53:00,45.5,41.9,29.67,East,98,10.0,16.0,87,0.00,,SKC,0.03,VWS V14.01,2013-03-09 13:53:00,
2013-03-09 07:57:00,45.6,42.0,29.67,ESE,106,9.0,16.0,87,0.00,,SKC,0.03,VWS V14.01,2013-03-09 13:57:00,
2013-03-09 08:01:00,45.5,41.9,29.67,East,90,10.0,14.0,87,0.00,,SKC,0.03,VWS V14.01,2013-03-09 14:01:00,
2013-03-09 08:05:00,45.6,42.0,29.67,ESE,102,9.0,14.0,87,0.00,,SKC,0.03,VWS V14.01,2013-03-09 14:05:00,
2013-03-09 08:09:00,45.8,42.2,29.67,ESE,103,9.0,14.0,87,0.00,,SKC,0.03,VWS V14.01,2013-03-09 14:09:00,
2013-03-09 08:13:00,45.9,42.0,29.67,ESE,105,8.0,14.0,86,0.00,,SKC,0.03,VWS V14.01,2013-03-09 14:13:00,
2013-03-09 08:17:00,46.0,42.0,29.67,East,100,13.0,14.0,86,0.00,,SKC,0.03,VWS V14.01,2013-03-09 14:17:00,
2013-03-09 08:21:00,46.0,41.8,29.66,East,101,13.0,17.0,85,0.00,,SKC,0.03,VWS V14.01,2013-03-09 14:21:00,
2013-03-09 08:29:00,46.0,41.8,29.66,ENE,74,9.0,17.0,85,0.00,,SKC,0.03,VWS V14.01,2013-03-09 14:29:00,
2013-03-09 08:37:00,45.9,42.0,29.66,East,100,13.0,15.0,86,0.00,,SKC,0.03,VWS V14.01,2013-03-09 14:37:00,
2013-03-09 08:45:00,45.9,42.0,29.65,SSE,160,4.0,17.0,86,0.00,,SKC,0.03,VWS V14.01,2013-03-09 14:45:00,
2013-03-09 08:49:00,45.9,42.0,29.67,ESE,110,2.0,17.0,86,0.00,,SKC,0.03,VWS V14.01,2013-03-09 14:49:00,
2013-03-09 08:53:00,45.9,42.0,29.65,East,87,3.0,17.0,86,0.00,,SKC,0.03,VWS V14.01,2013-03-09 14:53:00,
2013-03-09 08:57:00,46.0,42.0,29.65,ESE,106,7.0,17.0,86,0.00,,SKC,0.03,VWS V14.01,2013-03-09 14:57:00,
2013-03-09 08:59:00,46.1,42.2,29.66,ESE,111,4.0,17.0,86,0.00,,SKC,0.03,VWS V14.01,2013-03-09 14:59:00,
2013-03-09 09:01:00,46.2,42.2,29.66,SSE,149,5.0,8.0,86,0.00,,SKC,0.03,VWS V14.01,2013-03-09 15:01:00,
2013-03-09 09:05:00,46.3,42.3,29.66,ESE,104,7.0,9.0,86,0.00,,SKC,0.03,VWS V14.01,2013-03-09 15:05:00,
2013-03-09 09:09:00,46.4,42.5,29.66,ENE,74,0.0,10.0,86,0.00,,SKC,0.03,VWS V14.01,2013-03-09 15:09:00,
2013-03-09 09:13:00,46.5,42.5,29.66,SSE,168,0.0,10.0,86,0.00,,SKC,0.03,VWS V14.01,2013-03-09 15:13:00,
2013-03-09 09:17:00,46.7,42.7,29.66,SE,134,3.0,10.0,86,0.00,,SKC,0.03,VWS V14.01,2013-03-09 15:17:00,
2013-03-09 09:21:00,46.8,42.8,29.66,East,83,5.0,10.0,86,0.00,,SKC,0.03,VWS V14.01,2013-03-09 15:21:00,
2013-03-09 09:25:00,46.9,42.9,29.66,ESE,107,0.0,10.0,86,0.00,,SKC,0.03,VWS V14.01,2013-03-09 15:25:00,
2013-03-09 09:29:00,47.0,43.0,29.66,East,90,3.0,10.0,86,0.00,,SKC,0.03,VWS V14.01,2013-03-09 15:29:00,
2013-03-09 09:33:00,47.2,43.2,29.65,East,90,7.0,8.0,86,0.00,,SKC,0.03,VWS V14.01,2013-03-09 15:33:00,
2013-03-09 09:37:00,47.4,43.4,29.65,East,94,5.0,8.0,86,0.00,,SKC,0.03,VWS V14.01,2013-03-09 15:37:00,
2013-03-09 09:45:00,47.7,43.7,29.63,East,96,7.0,11.0,86,0.00,,SKC,0.03,VWS V14.01,2013-03-09 15:45:00,
2013-03-09 09:49:00,48.0,44.0,29.62,ESE,109,8.0,11.0,86,0.00,,SKC,0.03,VWS V14.01,2013-03-09 15:49:00,
2013-03-09 09:53:00,48.3,44.3,29.62,South,190,4.0,11.0,86,0.00,,SKC,0.03,VWS V14.01,2013-03-09 15:53:00,
2013-03-09 09:57:00,48.6,44.9,29.61,NNE,32,4.0,11.0,87,0.00,,SKC,0.03,VWS V14.01,2013-03-09 15:57:00,
2013-03-09 10:01:00,48.9,44.9,29.62,SSE,167,7.0,13.0,86,0.00,,SKC,0.03,VWS V14.01,2013-03-09 16:01:00,
2013-03-09 10:09:00,49.3,45.6,29.60,ESE,107,7.0,13.0,87,0.00,,SKC,0.03,VWS V14.01,2013-03-09 16:09:00,
2013-03-09 10:13:00,49.4,45.7,29.61,SSE,151,0.0,13.0,87,0.00,,SKC,0.03,VWS V14.01,2013-03-09 16:13:00,
2013-03-09 10:17:00,49.6,45.9,29.63,South,186,0.0,13.0,87,0.00,,SKC,0.03,VWS V14.01,2013-03-09 16:17:00,
2013-03-09 10:21:00,49.7,46.0,29.63,South,188,9.0,13.0,87,0.00,,SKC,0.03,VWS V14.01,2013-03-09 16:21:00,
2013-03-09 10:29:00,50.0,46.9,29.63,SSE,167,6.0,13.0,89,0.00,,SKC,0.03,VWS V14.01,2013-03-09 16:29:00,
2013-03-09 10:37:00,50.5,47.4,29.62,SE,142,5.0,10.0,89,0.00,,SKC,0.03,VWS V14.01,2013-03-09 16:37:00,
2013-03-09 10:41:00,50.7,47.6,29.62,South,190,10.0,13.0,89,0.00,,SKC,0.03,VWS V14.01,2013-03-09 16:41:00,
2013-03-09 10:49:00,51.0,48.2,29.63,SSE,167,4.0,13.0,90,0.00,,SKC,0.03,VWS V14.01,2013-03-09 16:49:00,
2013-03-09 10:53:00,51.1,48.3,29.63,SE,146,7.0,13.0,90,0.00,,SKC,0.03,VWS V14.01,2013-03-09 16:53:00,
2013-03-09 10:57:00,51.4,48.6,29.62,SE,144,3.0,13.0,90,0.00,,SKC,0.03,VWS V14.01,2013-03-09 16:57:00,
2013-03-09 10:59:00,51.4,48.6,29.62,SE,134,0.0,13.0,90,0.00,,SKC,0.03,VWS V14.01,2013-03-09 16:59:00,
2013-03-09 11:05:00,51.7,48.9,29.62,ESE,119,5.0,8.0,90,0.00,,SKC,0.03,VWS V14.01,2013-03-09 17:05:00,
2013-03-09 11:09:00,51.9,49.1,29.62,ESE,119,5.0,8.0,90,0.00,,SKC,0.03,VWS V14.01,2013-03-09 17:09:00,
2013-03-09 11:13:00,52.1,49.3,29.62,SSE,158,5.0,9.0,90,0.00,,SKC,0.03,VWS V14.01,2013-03-09 17:13:00,
2013-03-09 11:17:00,52.3,49.5,29.62,SSE,158,9.0,9.0,90,0.00,,SKC,0.03,VWS V14.01,2013-03-09 17:17:00,
2013-03-09 11:21:00,52.5,49.7,29.62,SSE,157,7.0,9.0,90,0.00,,SKC,0.03,VWS V14.01,2013-03-09 17:21:00,
2013-03-09 11:25:00,52.8,50.0,29.61,ESE,113,4.0,10.0,90,0.00,,SKC,0.03,VWS V14.01,2013-03-09 17:25:00,
2013-03-09 11:29:00,53.0,50.2,29.61,SSE,160,8.0,11.0,90,0.00,,SKC,0.03,VWS V14.01,2013-03-09 17:29:00,
2013-03-09 11:33:00,53.0,49.8,29.62,SSE,161,7.0,11.0,89,0.00,,SKC,0.03,VWS V14.01,2013-03-09 17:33:00,
2013-03-09 11:37:00,53.0,49.8,29.62,SSE,150,6.0,11.0,89,0.00,,SKC,0.03,VWS V14.01,2013-03-09 17:37:00,
2013-03-09 11:41:00,53.0,49.8,29.62,SE,144,6.0,11.0,89,0.00,,SKC,0.03,VWS V14.01,2013-03-09 17:41:00,
2013-03-09 11:49:00,53.1,50.0,29.62,SSE,161,4.0,11.0,89,0.00,,SKC,0.03,VWS V14.01,2013-03-09 17:49:00,
2013-03-09 11:53:00,53.2,50.3,29.62,SSE,167,5.0,11.0,90,0.00,,SKC,0.03,VWS V14.01,2013-03-09 17:53:00,
2013-03-09 11:59:00,53.4,50.5,29.61,SSE,155,7.0,11.0,90,0.00,,SKC,0.03,VWS V14.01,2013-03-09 17:59:00,
2013-03-09 12:02:00,53.5,50.6,29.61,South,174,4.0,8.0,90,0.00,,SKC,0.03,VWS V14.01,2013-03-09 18:02:00,
2013-03-09 12:06:00,53.7,50.8,29.61,SSE,162,5.0,8.0,90,0.00,,SKC,0.03,VWS V14.01,2013-03-09 18:06:00,
2013-03-09 12:10:00,53.9,51.0,29.61,SSE,166,5.0,8.0,90,0.00,,SKC,0.03,VWS V14.01,2013-03-09 18:10:00,
2013-03-09 12:14:00,53.9,51.0,29.61,SE,140,4.0,8.0,90,0.00,,SKC,0.03,VWS V14.01,2013-03-09 18:14:00,
2013-03-09 12:18:00,54.1,51.2,29.61,SE,137,5.0,8.0,90,0.00,,SKC,0.03,VWS V14.01,2013-03-09 18:18:00,
2013-03-09 12:22:00,54.3,51.4,29.61,SSE,160,5.0,8.0,90,0.00,,SKC,0.03,VWS V14.01,2013-03-09 18:22:00,
2013-03-09 12:26:00,54.9,52.0,29.60,South,169,5.0,8.0,90,0.00,,SKC,0.03,VWS V14.01,2013-03-09 18:26:00,
2013-03-09 12:29:00,55.8,53.2,29.60,SSE,166,5.0,8.0,91,0.00,,SKC,0.03,VWS V14.01,2013-03-09 18:29:00,
2013-03-09 12:38:00,56.9,52.8,29.60,South,188,6.0,17.0,86,0.00,,SKC,0.03,VWS V14.01,2013-03-09 18:38:00,
2013-03-09 12:46:00,57.1,52.6,29.59,South,184,16.0,17.0,85,0.00,,SKC,0.03,VWS V14.01,2013-03-09 18:46:00,
2013-03-09 12:50:00,57.1,52.3,29.59,South,185,10.0,18.0,84,0.00,,SKC,0.03,VWS V14.01,2013-03-09 18:50:00,
2013-03-09 12:54:00,57.1,52.6,29.59,SSW,198,10.0,18.0,85,0.00,,SKC,0.03,VWS V14.01,2013-03-09 18:54:00,
2013-03-09 12:58:00,56.9,52.1,29.59,South,187,12.0,18.0,84,0.00,,SKC,0.03,VWS V14.01,2013-03-09 18:58:00,
2013-03-09 13:02:00,56.8,52.0,29.58,SSW,205,9.0,15.0,84,0.00,,SKC,0.03,VWS V14.01,2013-03-09 19:02:00,
2013-03-09 13:10:00,56.8,52.0,29.59,SSW,201,14.0,18.0,84,0.00,,SKC,0.03,VWS V14.01,2013-03-09 19:10:00,
2013-03-09 13:18:00,55.9,51.1,29.59,SSE,161,13.0,18.0,84,0.00,,SKC,0.03,VWS V14.01,2013-03-09 19:18:00,
2013-03-09 13:22:00,55.6,50.8,29.59,SSE,167,16.0,20.0,84,0.00,,SKC,0.03,VWS V14.01,2013-03-09 19:22:00,
2013-03-09 13:26:00,55.3,50.9,29.59,SSW,194,7.0,20.0,85,0.00,,SKC,0.03,VWS V14.01,2013-03-09 19:26:00,
2013-03-09 13:34:00,55.2,51.1,29.58,SSE,161,6.0,12.0,86,0.00,,SKC,0.03,VWS V14.01,2013-03-09 19:34:00,
2013-03-09 13:38:00,55.1,51.0,29.57,South,186,8.0,13.0,86,0.00,,SKC,0.03,VWS V14.01,2013-03-09 19:38:00,
2013-03-09 13:46:00,55.3,51.2,29.57,SSE,159,7.0,13.0,86,0.00,,SKC,0.03,VWS V14.01,2013-03-09 19:46:00,
2013-03-09 13:54:00,55.9,51.8,29.56,SSE,148,14.0,15.0,86,0.00,,SKC,0.03,VWS V14.01,2013-03-09 19:54:00,
2013-03-09 13:58:00,55.8,51.4,29.56,SSE,161,11.0,15.0,85,0.00,,SKC,0.03,VWS V14.01,2013-03-09 19:58:00,
2013-03-09 13:59:00,55.7,51.3,29.56,SSE,153,10.0,15.0,85,0.00,,SKC,0.03,VWS V14.01,2013-03-09 19:59:00,
2013-03-09 14:06:00,55.5,51.1,29.56,South,180,9.0,14.0,85,0.00,,SKC,0.03,VWS V14.01,2013-03-09 20:06:00,
2013-03-09 14:10:00,55.4,51.0,29.56,South,183,9.0,14.0,85,0.00,,SKC,0.03,VWS V14.01,2013-03-09 20:10:00,
2013-03-09 14:18:00,55.3,50.9,29.55,SSE,155,11.0,14.0,85,0.00,,SKC,0.03,VWS V14.01,2013-03-09 20:18:00,
2013-03-09 14:26:00,55.3,51.2,29.56,SSE,166,6.0,14.0,86,0.00,,SKC,0.03,VWS V14.01,2013-03-09 20:26:00,
2013-03-09 14:29:00,55.3,51.2,29.56,SSE,168,7.0,14.0,86,0.00,,SKC,0.03,VWS V14.01,2013-03-09 20:29:00,
2013-03-09 14:38:00,55.3,51.2,29.57,SSE,165,8.0,15.0,86,0.00,,SKC,0.03,VWS V14.01,2013-03-09 20:38:00,
2013-03-09 14:46:00,55.4,51.3,29.58,South,182,9.0,16.0,86,0.00,,SKC,0.03,VWS V14.01,2013-03-09 20:46:00,
2013-03-09 14:50:00,55.5,51.4,29.58,South,169,10.0,16.0,86,0.00,,SKC,0.03,VWS V14.01,2013-03-09 20:50:00,
2013-03-09 14:58:00,55.4,51.3,29.59,SSW,198,7.0,17.0,86,0.00,,SKC,0.03,VWS V14.01,2013-03-09 20:58:00,
2013-03-09 15:02:00,55.3,51.2,29.59,South,186,10.0,15.0,86,0.00,,SKC,0.03,VWS V14.01,2013-03-09 21:02:00,
2013-03-09 15:10:00,54.9,50.8,29.59,South,188,7.0,20.0,86,0.00,,SKC,0.03,VWS V14.01,2013-03-09 21:10:00,
2013-03-09 15:14:00,54.7,50.9,29.59,South,172,15.0,20.0,87,0.00,,SKC,0.03,VWS V14.01,2013-03-09 21:14:00,
2013-03-09 15:22:00,54.4,50.6,29.57,SE,124,7.0,20.0,87,0.01,,SKC,0.04,VWS V14.01,2013-03-09 21:22:00,
2013-03-09 15:29:00,53.9,50.7,29.54,East,90,7.0,20.0,89,0.01,,SKC,0.04,VWS V14.01,2013-03-09 21:29:00,
2013-03-09 15:30:00,53.9,50.7,29.54,East,84,6.0,10.0,89,0.01,,SKC,0.04,VWS V14.01,2013-03-09 21:30:00,
2013-03-09 15:34:00,53.7,50.5,29.54,SSE,157,4.0,11.0,89,0.01,,SKC,0.04,VWS V14.01,2013-03-09 21:34:00,
2013-03-09 15:38:00,53.8,50.9,29.54,SSE,165,3.0,11.0,90,0.01,,SKC,0.04,VWS V14.01,2013-03-09 21:38:00,
2013-03-09 15:42:00,54.0,51.1,29.54,SE,143,5.0,11.0,90,0.01,,SKC,0.04,VWS V14.01,2013-03-09 21:42:00,
2013-03-09 15:50:00,54.1,51.2,29.50,East,94,8.0,14.0,90,0.01,,SKC,0.04,VWS V14.01,2013-03-09 21:50:00,
2013-03-09 15:54:00,54.4,51.5,29.52,SE,142,4.0,14.0,90,0.01,,SKC,0.04,VWS V14.01,2013-03-09 21:54:00,
2013-03-09 15:58:00,54.6,51.7,29.52,South,184,4.0,14.0,90,0.01,,SKC,0.04,VWS V14.01,2013-03-09 21:58:00,
2013-03-09 15:59:00,54.6,51.4,29.52,South,176,4.0,14.0,89,0.01,,SKC,0.04,VWS V14.01,2013-03-09 21:59:00,
2013-03-09 16:06:00,54.6,51.4,29.52,ESE,119,5.0,9.0,89,0.01,,SKC,0.04,VWS V14.01,2013-03-09 22:06:00,
2013-03-09 16:10:00,54.7,51.5,29.52,SE,130,6.0,10.0,89,0.01,,SKC,0.04,VWS V14.01,2013-03-09 22:10:00,
2013-03-09 16:14:00,54.9,51.7,29.52,ESE,118,5.0,10.0,89,0.01,,SKC,0.04,VWS V14.01,2013-03-09 22:14:00,
2013-03-09 16:18:00,55.2,52.0,29.52,South,172,7.0,11.0,89,0.01,,SKC,0.04,VWS V14.01,2013-03-09 22:18:00,
2013-03-09 16:22:00,55.5,52.3,29.52,SSE,163,9.0,13.0,89,0.01,,SKC,0.04,VWS V14.01,2013-03-09 22:22:00,
2013-03-09 16:26:00,55.5,52.0,29.52,SSE,163,14.0,15.0,88,0.01,,SKC,0.04,VWS V14.01,2013-03-09 22:26:00,
2013-03-09 16:29:00,55.5,52.0,29.52,SSE,158,9.0,15.0,88,0.01,,SKC,0.04,VWS V14.01,2013-03-09 22:29:00,
2013-03-09 16:34:00,55.8,52.3,29.52,South,191,7.0,13.0,88,0.00,,SKC,0.04,VWS V14.01,2013-03-09 22:34:00,
2013-03-09 16:42:00,56.2,52.1,29.52,SSE,153,5.0,16.0,86,0.00,,SKC,0.04,VWS V14.01,2013-03-09 22:42:00,
2013-03-09 16:46:00,55.9,52.1,29.52,SSE,166,11.0,16.0,87,0.00,,SKC,0.04,VWS V14.01,2013-03-09 22:46:00,
2013-03-09 16:50:00,55.6,51.8,29.53,South,178,6.0,16.0,87,0.00,,SKC,0.04,VWS V14.01,2013-03-09 22:50:00,
2013-03-09 16:54:00,55.2,51.4,29.53,ESE,119,8.0,16.0,87,0.00,,SKC,0.04,VWS V14.01,2013-03-09 22:54:00,
2013-03-09 16:59:00,55.0,51.5,29.53,SSE,160,8.0,16.0,88,0.00,,SKC,0.04,VWS V14.01,2013-03-09 22:59:00,
2013-03-09 17:02:00,54.8,51.3,29.53,SE,141,8.0,10.0,88,0.00,,SKC,0.04,VWS V14.01,2013-03-09 23:02:00,
2013-03-09 17:06:00,54.6,51.1,29.54,SSE,159,6.0,10.0,88,0.00,,SKC,0.04,VWS V14.01,2013-03-09 23:06:00,
2013-03-09 17:10:00,54.4,50.9,29.54,SSE,153,7.0,11.0,88,0.00,,SKC,0.04,VWS V14.01,2013-03-09 23:10:00,
2013-03-09 17:14:00,54.2,50.7,29.54,SSE,153,8.0,11.0,88,0.00,,SKC,0.04,VWS V14.01,2013-03-09 23:14:00,
2013-03-09 17:18:00,54.1,50.9,29.54,SSE,163,6.0,11.0,89,0.00,,SKC,0.04,VWS V14.01,2013-03-09 23:18:00,
2013-03-09 17:26:00,54.1,50.9,29.54,SSE,165,3.0,11.0,89,0.00,,SKC,0.04,VWS V14.01,2013-03-09 23:26:00,
2013-03-09 17:34:00,54.2,51.0,29.55,SSW,192,3.0,7.0,89,0.00,,SKC,0.04,VWS V14.01,2013-03-09 23:34:00,
2013-03-09 17:42:00,54.0,50.8,29.55,SSE,159,3.0,7.0,89,0.00,,SKC,0.04,VWS V14.01,2013-03-09 23:42:00,
2013-03-09 17:46:00,53.9,50.7,29.55,SSE,159,3.0,7.0,89,0.00,,SKC,0.04,VWS V14.01,2013-03-09 23:46:00,
2013-03-09 17:50:00,53.8,50.6,29.56,SSE,161,0.0,7.0,89,0.00,,SKC,0.04,VWS V14.01,2013-03-09 23:50:00,
2013-03-09 17:58:00,53.6,50.7,29.57,SE,134,0.0,7.0,90,0.00,,SKC,0.04,VWS V14.01,2013-03-09 23:58:00,
2013-03-09 18:02:00,53.7,50.8,29.57,SSE,148,0.0,4.0,90,0.00,,SKC,0.04,VWS V14.01,2013-03-10 00:02:00,
2013-03-09 18:10:00,53.7,50.8,29.58,SSE,159,3.0,4.0,90,0.00,,SKC,0.04,VWS V14.01,2013-03-10 00:10:00,
2013-03-09 18:18:00,53.8,50.6,29.57,SE,132,0.0,5.0,89,0.00,,SKC,0.04,VWS V14.01,2013-03-10 00:18:00,
2013-03-09 18:22:00,53.7,50.5,29.57,SE,137,0.0,5.0,89,0.00,,SKC,0.04,VWS V14.01,2013-03-10 00:22:00,
2013-03-09 18:26:00,53.5,50.3,29.57,SE,130,0.0,5.0,89,0.00,,SKC,0.04,VWS V14.01,2013-03-10 00:26:00,
2013-03-09 18:29:00,53.4,50.2,29.57,ESE,105,0.0,5.0,89,0.00,,SKC,0.04,VWS V14.01,2013-03-10 00:29:00,
2013-03-09 18:34:00,53.1,50.0,29.57,ESE,105,0.0,0.0,89,0.00,,SKC,0.04,VWS V14.01,2013-03-10 00:34:00,
2013-03-09 18:38:00,52.8,50.0,29.58,ESE,105,0.0,0.0,90,0.00,,SKC,0.04,VWS V14.01,2013-03-10 00:38:00,
2013-03-09 18:46:00,52.6,50.0,29.58,ESE,105,0.0,0.0,91,0.00,,SKC,0.04,VWS V14.01,2013-03-10 00:46:00,
2013-03-09 18:50:00,52.5,50.0,29.58,East,101,0.0,0.0,91,0.00,,SKC,0.04,VWS V14.01,2013-03-10 00:50:00,
2013-03-09 18:54:00,52.4,49.8,29.58,East,101,0.0,0.0,91,0.00,,SKC,0.04,VWS V14.01,2013-03-10 00:54:00,
2013-03-09 18:58:00,52.3,49.8,29.59,NNW,343,0.0,0.0,91,0.00,,SKC,0.04,VWS V14.01,2013-03-10 00:58:00,
2013-03-09 18:59:00,52.3,49.8,29.59,NNW,343,0.0,0.0,91,0.00,,SKC,0.04,VWS V14.01,2013-03-10 00:59:00,
2013-03-09 19:06:00,52.2,49.7,29.60,NNW,342,0.0,0.0,91,0.00,,SKC,0.04,VWS V14.01,2013-03-10 01:06:00,
2013-03-09 19:11:00,52.1,49.8,29.59,NNW,342,0.0,0.0,92,0.00,,SKC,0.04,VWS V14.01,2013-03-10 01:11:00,
2013-03-09 19:19:00,47.2,42.0,29.60,NNW,327,19.0,19.0,82,0.00,,SKC,0.04,VWS V14.01,2013-03-10 01:19:00,
2013-03-09 19:27:00,42.7,39.7,29.61,NW,323,8.0,20.0,89,0.00,,SKC,0.04,VWS V14.01,2013-03-10 01:27:00,
2013-03-09 19:31:00,41.6,38.9,29.60,NW,319,9.0,18.0,90,0.00,,SKC,0.04,VWS V14.01,2013-03-10 01:31:00,
2013-03-09 19:39:00,40.7,38.3,29.61,NNE,15,11.0,20.0,91,0.00,,SKC,0.04,VWS V14.01,2013-03-10 01:39:00,
2013-03-09 19:43:00,40.5,38.4,29.61,NNW,336,7.0,20.0,92,0.00,,SKC,0.04,VWS V14.01,2013-03-10 01:43:00,
2013-03-09 19:47:00,40.4,38.3,29.61,North,360,9.0,22.0,92,0.00,,SKC,0.04,VWS V14.01,2013-03-10 01:47:00,
2013-03-09 19:55:00,40.0,37.9,29.62,NW,313,10.0,22.0,92,0.00,,SKC,0.04,VWS V14.01,2013-03-10 01:55:00,
2013-03-09 19:59:00,39.9,37.8,29.62,North,360,16.0,22.0,92,0.00,,SKC,0.04,VWS V14.01,2013-03-10 01:59:00,
2013-03-09 20:03:00,39.7,37.6,29.63,NNW,342,18.0,21.0,92,0.00,,SKC,0.04,VWS V14.01,2013-03-10 02:03:00,
2013-03-09 20:07:00,39.5,37.4,29.63,NNW,329,13.0,23.0,92,0.00,,SKC,0.04,VWS V14.01,2013-03-10 02:07:00,
2013-03-09 20:15:00,39.1,37.0,29.64,NW,309,14.0,24.0,92,0.00,,SKC,0.04,VWS V14.01,2013-03-10 02:15:00,
2013-03-09 20:19:00,38.9,36.8,29.65,NNE,14,14.0,24.0,92,0.00,,SKC,0.04,VWS V14.01,2013-03-10 02:19:00,
2013-03-09 20:23:00,38.7,36.6,29.65,NW,311,12.0,24.0,92,0.00,,SKC,0.04,VWS V14.01,2013-03-10 02:23:00,
2013-03-09 20:29:00,38.0,35.6,29.65,NNE,32,10.0,25.0,91,0.00,,SKC,0.04,VWS V14.01,2013-03-10 02:29:00,
2013-03-09 20:35:00,37.8,35.4,29.66,ENE,68,16.0,24.0,91,0.00,,SKC,0.04,VWS V14.01,2013-03-10 02:35:00,
2013-03-09 20:39:00,37.8,35.4,29.66,NNW,332,21.0,24.0,91,0.00,,SKC,0.04,VWS V14.01,2013-03-10 02:39:00,
2013-03-09 20:47:00,37.7,35.6,29.68,NW,321,11.0,24.0,92,0.00,,SKC,0.04,VWS V14.01,2013-03-10 02:47:00,
2013-03-09 20:55:00,37.4,35.3,29.68,NNW,342,12.0,24.0,92,0.00,,SKC,0.04,VWS V14.01,2013-03-10 02:55:00,
2013-03-09 20:59:00,37.2,35.1,29.67,NNE,17,19.0,24.0,92,0.00,,SKC,0.04,VWS V14.01,2013-03-10 02:59:00,
2013-03-09 21:03:00,37.0,34.9,29.66,WNW,287,14.0,24.0,92,0.00,,SKC,0.04,VWS V14.01,2013-03-10 03:03:00,
2013-03-09 21:07:00,36.8,34.7,29.66,NNW,348,23.0,27.0,92,0.00,,SKC,0.04,VWS V14.01,2013-03-10 03:07:00,
2013-03-09 21:15:00,36.8,35.0,29.67,NNW,347,18.0,27.0,93,0.00,,SKC,0.04,VWS V14.01,2013-03-10 03:15:00,
2013-03-09 21:19:00,36.8,35.0,29.68,North,360,8.0,27.0,93,0.00,,SKC,0.04,VWS V14.01,2013-03-10 03:19:00,
2013-03-09 21:23:00,36.7,34.9,29.67,NNW,339,9.0,28.0,93,0.00,,SKC,0.04,VWS V14.01,2013-03-10 03:23:00,
2013-03-09 21:27:00,36.5,34.7,29.68,NNW,338,14.0,28.0,93,0.00,,SKC,0.04,VWS V14.01,2013-03-10 03:27:00,
2013-03-09 21:31:00,36.5,34.7,29.68,North,355,16.0,20.0,93,0.00,,SKC,0.04,VWS V14.01,2013-03-10 03:31:00,
2013-03-09 21:35:00,36.4,34.6,29.68,NNW,331,10.0,25.0,93,0.00,,SKC,0.04,VWS V14.01,2013-03-10 03:35:00,
2013-03-09 21:39:00,36.2,34.4,29.68,NNW,339,12.0,25.0,93,0.00,,SKC,0.04,VWS V14.01,2013-03-10 03:39:00,
2013-03-09 21:43:00,36.0,34.2,29.68,NW,314,16.0,25.0,93,0.00,,SKC,0.04,VWS V14.01,2013-03-10 03:43:00,
2013-03-09 21:51:00,35.6,33.8,29.69,NNW,340,17.0,26.0,93,0.00,,SKC,0.04,VWS V14.01,2013-03-10 03:51:00,
2013-03-09 21:55:00,35.5,33.7,29.69,NW,312,19.0,26.0,93,0.00,,SKC,0.04,VWS V14.01,2013-03-10 03:55:00,
2013-03-09 21:59:00,35.3,33.5,29.69,North,5,19.0,26.0,93,0.00,,SKC,0.04,VWS V14.01,2013-03-10 03:59:00,
2013-03-09 22:03:00,35.2,33.4,29.69,NNE,13,14.0,28.0,93,0.00,,SKC,0.04,VWS V14.01,2013-03-10 04:03:00,
2013-03-09 22:07:00,35.2,33.4,29.70,NNW,328,13.0,28.0,93,0.00,,SKC,0.04,VWS V14.01,2013-03-10 04:07:00,
2013-03-09 22:11:00,35.2,33.4,29.71,NNW,327,16.0,28.0,93,0.01,,SKC,0.05,VWS V14.01,2013-03-10 04:11:00,
2013-03-09 22:19:00,35.0,33.2,29.71,WNW,289,8.0,28.0,93,0.01,,SKC,0.05,VWS V14.01,2013-03-10 04:19:00,
2013-03-09 22:27:00,35.0,33.5,29.70,NNW,340,19.0,28.0,94,0.02,,SKC,0.06,VWS V14.01,2013-03-10 04:27:00,
2013-03-09 22:31:00,35.0,33.2,29.70,North,355,13.0,21.0,93,0.02,,SKC,0.06,VWS V14.01,2013-03-10 04:31:00,
2013-03-09 22:35:00,35.1,33.3,29.70,North,355,15.0,21.0,93,0.02,,SKC,0.06,VWS V14.01,2013-03-10 04:35:00,
2013-03-09 22:43:00,35.1,33.3,29.70,NNW,348,14.0,23.0,93,0.02,,SKC,0.06,VWS V14.01,2013-03-10 04:43:00,
2013-03-09 22:47:00,35.2,33.4,29.69,North,355,19.0,23.0,93,0.02,,SKC,0.06,VWS V14.01,2013-03-10 04:47:00,
2013-03-09 22:51:00,35.3,33.5,29.69,North,360,16.0,28.0,93,0.02,,SKC,0.06,VWS V14.01,2013-03-10 04:51:00,
2013-03-09 22:55:00,35.3,33.5,29.69,North,355,12.0,28.0,93,0.03,,SKC,0.07,VWS V14.01,2013-03-10 04:55:00,
2013-03-09 22:59:00,35.3,33.5,29.70,North,355,22.0,28.0,93,0.03,,SKC,0.07,VWS V14.01,2013-03-10 04:59:00,
2013-03-09 23:03:00,35.3,33.5,29.69,North,360,20.0,25.0,93,0.03,,SKC,0.07,VWS V14.01,2013-03-10 05:03:00,
2013-03-09 23:07:00,35.3,33.2,29.69,North,9,14.0,25.0,92,0.03,,SKC,0.07,VWS V14.01,2013-03-10 05:07:00,
2013-03-09 23:11:00,35.3,33.2,29.69,North,360,18.0,27.0,92,0.03,,SKC,0.07,VWS V14.01,2013-03-10 05:11:00,
2013-03-09 23:15:00,35.3,33.2,29.69,NNE,23,21.0,27.0,92,0.03,,SKC,0.07,VWS V14.01,2013-03-10 05:15:00,
2013-03-09 23:19:00,35.3,33.2,29.70,North,350,19.0,27.0,92,0.03,,SKC,0.07,VWS V14.01,2013-03-10 05:19:00,
2013-03-09 23:23:00,35.3,33.2,29.70,NNW,346,15.0,27.0,92,0.03,,SKC,0.07,VWS V14.01,2013-03-10 05:23:00,
2013-03-09 23:27:00,35.3,33.2,29.70,North,360,20.0,27.0,92,0.03,,SKC,0.07,VWS V14.01,2013-03-10 05:27:00,
2013-03-09 23:29:00,35.3,33.2,29.69,North,355,20.0,28.0,92,0.03,,SKC,0.07,VWS V14.01,2013-03-10 05:29:00,
2013-03-09 23:31:00,35.2,33.1,29.69,North,351,21.0,24.0,92,0.01,,SKC,0.07,VWS V14.01,2013-03-10 05:31:00,
2013-03-09 23:35:00,35.2,33.1,29.67,North,355,24.0,27.0,92,0.01,,SKC,0.07,VWS V14.01,2013-03-10 05:35:00,
2013-03-09 23:43:00,35.0,32.9,29.68,North,355,12.0,28.0,92,0.01,,SKC,0.07,VWS V14.01,2013-03-10 05:43:00,
2013-03-09 23:47:00,34.9,32.8,29.67,North,355,17.0,28.0,92,0.01,,SKC,0.07,VWS V14.01,2013-03-10 05:47:00,
2013-03-09 23:51:00,34.9,32.8,29.67,NNW,339,17.0,28.0,92,0.01,,SKC,0.07,VWS V14.01,2013-03-10 05:51:00,
2013-03-09 23:55:00,34.9,32.8,29.68,North,355,18.0,30.0,92,0.01,,SKC,0.07,VWS V14.01,2013-03-10 05:55:00,
2013-03-09 23:59:00,34.9,32.5,29.68,NNE,22,17.0,30.0,91,0.01,,SKC,0.00,VWS V14.01,2013-03-10 05:59:00,